DW3693 Weather Reports


Display with metric or nautical units.
time (UTC)temp
F
wind
direction
speed
MPH
gust
MPH
rain 1hr
in
rain 24hr
in
rain mn
in
humidity
%
barometer
mb
20260503002016 79 0.0 1.0 0.00 0.00 0.00 47 1010.5
20260503001017 78 45 1.0 3.0 0.00 0.00 0.00 56 1010.7
20260503000015 79 45 1.0 3.0 0.00 0.00 0.00 46 1010.5
20260502235016 80 0.0 1.0 0.00 0.00 0.00 50 1010.7
20260502234038 79 0.0 2.0 0.00 0.00 0.00 50 1010.9
20260502233016 78 45 1.0 2.0 0.00 0.00 0.00 52 1011.1
20260502232015 79 68 1.0 2.0 0.00 0.00 0.00 50 1011.2
20260502231015 78 45 2.0 4.0 0.00 0.00 0.00 51 1011.2
20260502230016 78 0.0 2.0 0.00 0.00 0.00 58 1011.5
20260502225016 78 23 1.0 3.0 0.00 0.00 0.00 51 1011.6
20260502224059 78 23 1.0 2.0 0.00 0.00 0.00 49 1011.8
20260502223015 77 0 1.0 3.0 0.00 0.00 0.00 53 1012.0
20260502222016 77 23 2.0 4.0 0.00 0.00 0.00 52 1012.1
20260502221036 78 68 2.0 4.0 0.00 0.00 0.00 47 1012.3
20260502220039 78 45 1.0 3.0 0.00 0.00 0.00 53 1012.3
20260502215015 76 113 2.0 4.0 0.00 0.00 0.00 58 1012.5
20260502214017 76 113 1.0 3.0 0.00 0.00 0.00 58 1012.6
20260502213017 74 203 1.0 3.0 0.00 0.00 0.00 59 1012.9
20260502212017 72 0.0 2.0 0.00 0.00 0.00 61 1012.8
20260502211017 71 0.0 2.0 0.00 0.00 0.00 64 1012.8
20260502210017 69 45 1.0 3.0 0.00 0.00 0.00 62 1013.2
20260502205017 69 23 2.0 4.0 0.00 0.00 0.00 63 1013.2
20260502204017 70 23 1.0 3.0 0.00 0.00 0.00 62 1013.2
20260502203037 71 45 2.0 4.0 0.00 0.00 0.00 62 1013.4
20260502202017 70 0.0 1.0 0.00 0.00 0.00 66 1013.3
20260502201017 69 180 2.0 5.0 0.00 0.00 0.00 64 1013.4
20260502200017 67 113 2.0 4.0 0.00 0.00 0.00 70 1013.3
20260502195015 64 68 1.0 3.0 0.00 0.00 0.00 78 1013.4
20260502194017 62 0.0 2.0 0.00 0.00 0.00 79 1013.5
20260502193017 61 0.0 2.0 0.00 0.00 0.00 78 1013.5
20260502192017 61 68 1.0 1.0 0.00 0.00 0.00 77 1013.9
20260502191037 61 68 1.0 2.0 0.00 0.00 0.00 77 1014.1
20260502190017 61 270 1.0 3.0 0.00 0.00 0.00 77 1014.4
20260502185017 61 203 1.0 3.0 0.00 0.00 0.00 76 1014.6
20260502184017 61 68 2.0 4.0 0.00 0.00 0.00 76 1014.7
20260502183037 61 45 1.0 3.0 0.00 0.00 0.00 77 1014.7
20260502182017 61 45 2.0 4.0 0.00 0.00 0.00 76 1014.6
20260502181017 61 270 1.0 4.0 0.00 0.00 0.00 76 1014.6
20260502164019 58 90 1.0 2.0 0.00 0.00 0.00 82 1014.9
20260502163017 58 45 1.0 2.0 0.00 0.00 0.00 82 1015.0
20260502162036 58 23 1.0 2.0 0.00 0.00 0.00 81 1015.0
20260502161058 57 23 1.0 2.0 0.00 0.00 0.00 79 1015.0
20260502152016 56 0 1.0 2.0 0.00 0.00 0.00 84 1014.8
20260502151016 56 0.0 1.0 0.00 0.00 0.00 83 1014.6
20260502123016 55 0.0 2.0 0.00 0.00 0.00 84 1013.6
20260502122016 55 0.0 0.0 0.00 0.00 0.00 83 1013.6
20260502121015 56 0.0 1.0 0.00 0.00 0.00 82 1013.7
20260502115016 57 0.0 1.0 0.00 0.00 0.00 78 1014.2
20260502114015 58 203 1.0 3.0 0.00 0.00 0.00 78 1014.1
20260502113015 57 203 2.0 3.0 0.00 0.00 0.00 79 1013.8
20260502112017 57 0.0 0.0 0.00 0.00 0.00 79 1013.7
20260502111015 57 0.0 1.0 0.00 0.00 0.00 78 1013.6
20260502110016 57 0.0 1.0 0.00 0.00 0.00 77 1013.8
20260502105016 58 0.0 0.0 0.00 0.00 0.00 77 1014.1
20260502104016 58 0.0 0.0 0.00 0.00 0.00 75 1014.5
20260502103016 59 180 1.0 4.0 0.00 0.00 0.00 74 1014.5
20260502102015 59 270 1.0 6.0 0.00 0.00 0.00 74 1014.4
20260502101018 59 225 2.0 4.0 0.00 0.00 0.00 74 1014.4
20260502091017 59 248 3.0 12.0 0.00 0.00 0.00 72 1014.9
20260502071017 62 248 1.0 4.0 0.00 0.00 0.00 64 1014.6
20260502070016 62 248 1.0 3.0 0.00 0.00 0.00 64 1014.3
20260502065017 64 270 2.0 5.0 0.00 0.00 0.00 62 1014.4
20260502064017 64 293 2.0 5.0 0.00 0.00 0.00 61 1014.7
20260502063017 64 270 1.0 3.0 0.00 0.00 0.00 61 1014.7
20260502062017 64 270 3.0 11.0 0.00 0.00 0.00 61 1014.6
20260502061016 64 270 1.0 5.0 0.00 0.00 0.00 62 1014.5
20260502060016 64 248 3.0 10.0 0.00 0.00 0.00 60 1014.3
20260502055017 64 248 3.0 6.0 0.00 0.00 0.00 61 1014.0
20260502054017 65 270 3.0 10.0 0.00 0.00 0.00 60 1014.0
20260502053017 65 270 3.0 7.0 0.00 0.00 0.00 59 1014.1
20260502052016 65 225 2.0 7.0 0.00 0.00 0.00 60 1014.3
20260502051017 65 270 2.0 10.0 0.00 0.00 0.00 60 1014.0
20260502050037 65 293 2.0 4.0 0.00 0.00 0.00 60 1014.0
20260502045037 66 293 1.0 3.0 0.00 0.00 0.00 60 1013.9
20260502044016 66 23 2.0 5.0 0.00 0.00 0.00 58 1013.8
20260502043017 66 248 4.0 11.0 0.00 0.00 0.00 58 1013.5
20260502042016 66 248 4.0 11.0 0.00 0.00 0.00 57 1013.1
20260502041017 66 248 4.0 19.0 0.00 0.00 0.00 58 1013.3
20260502040037 66 270 3.0 7.0 0.00 0.00 0.00 59 1013.2
20260502035016 67 293 3.0 7.0 0.00 0.00 0.00 59 1013.5
20260502034017 67 270 3.0 8.0 0.00 0.00 0.00 59 1013.3
20260502033016 67 293 1.0 3.0 0.00 0.00 0.00 59 1013.3
20260502032016 68 158 3.0 9.0 0.00 0.00 0.00 57 1013.0
20260502031021 68 225 4.0 13.0 0.00 0.00 0.00 55 1012.9
20260502030036 68 225 3.0 12.0 0.00 0.00 0.00 55 1012.5
20260502025016 68 248 7.0 17.0 0.00 0.00 0.00 55 1012.2
20260502024016 69 270 5.0 14.0 0.00 0.00 0.00 55 1011.9
20260502023016 69 270 4.0 14.0 0.00 0.00 0.00 55 1011.9
20260502022016 69 293 4.0 13.0 0.00 0.00 0.00 54 1011.7
20260502021016 70 270 4.0 15.0 0.00 0.00 0.00 54 1011.8
20260502020016 70 270 4.0 12.0 0.00 0.00 0.00 53 1011.7
20260502015016 72 270 5.0 15.0 0.00 0.00 0.00 51 1011.7
20260502014016 73 248 5.0 12.0 0.00 0.00 0.00 49 1011.7
20260502013056 73 270 3.0 10.0 0.00 0.00 0.00 48 1011.5
20260502012015 74 270 4.0 12.0 0.00 0.00 0.00 47 1011.6
20260502011056 75 293 3.0 9.0 0.00 0.00 0.00 49 1011.6
20260502010015 77 270 1.0 5.0 0.00 0.00 0.00 47 1011.6
20260502005015 77 23 1.0 6.0 0.00 0.00 0.00 42 1011.7
20260502004016 77 45 1.0 3.0 0.00 0.00 0.00 43 1011.7
20260502003016 78 315 1.0 2.0 0.00 0.00 0.00 44 1011.8